Home > Weather > Minsk > Past weeks

Flag for Belarus Weather for the Past 2 Weeks in Minsk, Belarus

Now
64 °F

Partly sunny.


Feels Like: 64 °F
Forecast: 42 / 66 °F
Wind: 10 mph from North

Location: Loshitsa / Minsk International 1

Current Time: May 5, 2016 at 1:56:25 PM

Latest Report: May 5, 2016 at 1:30 PM


Visibility: N/A

Pressure: 30.12 "Hg

Humidity: 46%

Dew Point: 43 °F

Location of MinskLocation

Historic Weather in Minsk — Graph

°F

Minsk Temperature Yesterday

Maximum temperature yesterday: 66 °F (at 2:00 PM)
Minimum temperature yesterday: 50 °F (at 7:00 AM)
Average temperature yesterday: 60 °F

High & Low Weather Summary for the Past Weeks

 TemperatureHumidityPressure
High66 °F (May 4, 2:00 PM)100% (Apr 26, 7:00 AM)30.24 "Hg (Apr 26, 7:00 AM)
Low34 °F (Apr 27, 7:00 AM)34% (Apr 28, 1:00 PM)29.50 "Hg (Apr 26, 10:00 AM)
Average49 °F72%29.92 "Hg
* Reported Apr 20 12:00 Noon — May 5 12:30 PM, Minsk, Weather by CustomWeather, © 2016

Note: Actual official high and low records may vary slightly from our data, if they occured in-between our weather recording intervals... More about our weather records

Advertising

Minsk Weather History for the Previous 24 Hours

Scroll right to see more
 ConditionsComfort  
Time TempWeatherWind HumidityBarometerVisibility
12:30 PM
Thu, May 5
64 °FScattered clouds.10 mph49%30.12 "HgN/A
12:00 PM64 °FSunny.10 mph49%30.12 "Hg10 mi
11:30 AM61 °FSunny.6 mph55%30.12 "Hg10 mi
11:00 AM61 °FSunny.6 mph55%30.12 "Hg10 mi
10:30 AM57 °FSunny.6 mph59%30.12 "Hg10 mi
10:00 AM57 °FSunny.6 mph59%30.12 "Hg10 mi
9:30 AM55 °FSunny.6 mph63%30.12 "Hg10 mi
9:00 AM55 °FSunny.6 mph63%30.12 "Hg10 mi
8:30 AM54 °FSunny.3 mph67%30.12 "Hg10 mi
8:00 AM54 °FSunny.6 mph67%30.09 "Hg10 mi
7:30 AM52 °FSunny.6 mph77%30.09 "Hg10 mi
7:00 AM52 °FSunny.6 mph77%30.09 "Hg10 mi
5:30 PM
Wed, May 4
64 °FPartly sunny.6 mph56%30.07 "HgN/A
5:00 PM64 °FPartly sunny.6 mph56%30.07 "HgN/A
4:30 PM63 °FPartly sunny.6 mph52%30.07 "HgN/A
4:00 PM63 °FPartly sunny.8 mph52%30.07 "HgN/A
3:30 PM66 °FPartly sunny.8 mph49%30.07 "HgN/A
3:00 PM66 °FPartly sunny.6 mph49%30.07 "HgN/A
2:30 PM66 °FPartly sunny.8 mph49%30.07 "HgN/A
2:00 PM66 °FPartly sunny.6 mph49%30.07 "HgN/A
1:30 PM63 °FPartly sunny.6 mph59%30.07 "HgN/A
1:00 PM63 °FPartly sunny.6 mph59%30.07 "HgN/A
Weather by CustomWeather, © 2016

See weather overviewHow to use our weather pages